Location: Unspecified
(0.0000°N, 0.0000°E)
Time: 16:35:26
(UTC+00:00)

Hubble Space Telescope - Visible Passes

Search period start: 27 July 2017 00:00
Search period end: 06 August 2017 00:00
Orbit: 538 x 541 km, 28.5° (Epoch: 26 July)

Date Brightness Start Highest point End Pass type
(mag) Time Alt. Az. Time Alt. Az. Time Alt. Az.
28 Jul 3.3 20:00:14 10° N 20:01:23 14° N 20:01:23 14° N visible
29 Jul 2.7 19:49:33 10° NNW 19:51:53 20° N 19:51:53 20° N visible
30 Jul 2.0 19:39:03 10° NNW 19:42:26 30° NNE 19:42:26 30° NNE visible
31 Jul 1.3 19:28:42 10° NW 19:32:38 42° NNE 19:33:02 41° NE visible
01 Aug 0.9 19:18:27 10° NW 19:22:33 62° NNE 19:23:40 43° E visible
02 Aug 3.2 05:34:16 10° S 05:36:14 13° SSE 05:38:12 10° SE visible
02 Aug 0.7 19:08:18 10° WNW 19:12:27 89° SW 19:14:21 31° ESE visible
03 Aug 3.0 05:23:22 10° SSW 05:26:13 18° SSE 05:29:03 10° ESE visible
03 Aug 1.1 18:58:16 10° WNW 19:02:21 61° SSW 19:05:03 20° SE visible
04 Aug 2.5 05:12:45 10° SSW 05:16:09 24° SSE 05:19:32 10° E visible
04 Aug 1.7 18:48:21 10° WNW 18:52:16 41° SSW 18:55:46 13° SE visible
05 Aug 2.0 05:03:26 17° SSW 05:06:05 34° SSE 05:09:51 10° E visible
05 Aug 2.3 18:38:33 10° W 18:42:12 29° SSW 18:45:51 10° SSE visible
